Ft Lauderdale, FL

12:31 AM EST on November 12, 2019 (GMT -0500)
Fort Lauderdale-Hollywood International

Weather History for KFLL - October, 2019

Change the Weather History Date:

Monday, October 21, 2019

  Actual Average Record
Temperature  
Mean Temperature 84 °F 80 °F  
Max Temperature 89 °F 85 °F 91 °F (1980)
Min Temperature 78 °F 75 °F 48 °F (1913)
Degree Days  
Heating Degree Days 0 0  
Month to date heating degree days 0 0  
Since 1 July heating degree days 0 0  
Cooling Degree Days 19 15  
Month to date cooling degree days 370 343  
Year to date cooling degree days 4325 4055  
Growing Degree Days 34 (Base 50)    
Moisture  
Dew Point 76 °F    
Average Humidity 77    
Maximum Humidity 91    
Minimum Humidity 63    
Precipitation  
Precipitation 0.00 in 0.16 in 5.75 in (1926)
Month to date precipitation 2.82 5.14  
Year to date precipitation 44.79 54.80  
Snow  
Snow 0.00 in - - ()
Month to date snowfall 0.0  
Since 1 July snowfall 0.0  
Since 1 September snowfall 0.0  
Snow Depth 0.00 in    
Sea Level Pressure  
Sea Level Pressure 29.98 in    
Wind  
Wind Speed 7 mph (SSE)    
Max Wind Speed 17 mph    
Max Gust Speed 20 mph    
Visibility 10 miles    
Events      
T = Trace of Precipitation, MM = Missing Value Source: NWS Daily Summary

Daily Weather History Graph

Daily Weather History Graph

Search for Another Location

Airport or City:

Astronomy

Oct. 21, 2019 Rise Set
Actual Time 7:22 AM EDT 6:47 PM EDT
Civil Twilight 6:59 AM EDT 7:10 PM EDT
Nautical Twilight 6:32 AM EDT 7:37 PM EDT
Astronomical Twilight 6:05 AM EDT 8:04 PM EDT
Moon 12:17 AM EDT (10/21) 2:19 PM EDT (10/21)
Length of Visible Light 12h 11m
Length of Day
11h 24m
Waning Gibbous, 48% of the Moon is Illuminated
Oct 21
Waning Gibbous
Oct 27
New
Nov 4
First Quarter
Nov 12
Full
Nov 19
Last Quarter

Hourly Weather History & Observations

Time (EDT) Temp. Heat Index Dew Point Humidity Pressure Visibility Wind Dir Wind Speed Gust Speed Precip Events Conditions
12:53 AM 81.0 °F 86.7 °F 75.0 °F 82% 29.97 in 10.0 mi Calm Calm - N/A   Scattered Clouds
1:53 AM 81.0 °F 86.7 °F 75.0 °F 82% 29.96 in 10.0 mi South 3.5 mph - N/A   Partly Cloudy
2:53 AM 80.1 °F 85.4 °F 75.9 °F 87% 29.95 in 10.0 mi SW 3.5 mph - N/A   Partly Cloudy
3:53 AM 79.0 °F - 75.9 °F 90% 29.94 in 10.0 mi South 3.5 mph - N/A   Partly Cloudy
4:53 AM 79.0 °F - 75.9 °F 90% 29.95 in 10.0 mi Calm Calm - N/A   Clear
5:53 AM 79.0 °F - 75.9 °F 90% 29.96 in 10.0 mi Calm Calm - N/A   Clear
6:53 AM 79.0 °F - 75.9 °F 90% 29.97 in 10.0 mi Calm Calm - N/A   Partly Cloudy
7:53 AM 80.1 °F 85.8 °F 77.0 °F 90% 29.98 in 10.0 mi South 3.5 mph - N/A   Partly Cloudy
8:53 AM 82.0 °F 90.2 °F 77.0 °F 85% 29.99 in 10.0 mi SSE 6.9 mph - N/A   Partly Cloudy
9:53 AM 84.9 °F 94.1 °F 75.9 °F 74% 29.99 in 10.0 mi SSE 11.5 mph - N/A   Scattered Clouds
10:53 AM 87.1 °F 97.3 °F 75.9 °F 69% 29.99 in 10.0 mi South 9.2 mph - N/A   Scattered Clouds
11:53 AM 87.1 °F 96.3 °F 75.0 °F 67% 30.00 in 10.0 mi SSE 9.2 mph - N/A   Mostly Cloudy
12:53 PM 89.1 °F 99.1 °F 75.0 °F 63% 29.99 in 10.0 mi SE 13.8 mph - N/A   Scattered Clouds
1:53 PM 88.0 °F 97.5 °F 75.0 °F 65% 29.97 in 10.0 mi Variable 6.9 mph - N/A   Scattered Clouds
2:53 PM 89.1 °F 100.2 °F 75.9 °F 65% 29.96 in 10.0 mi SE 15.0 mph - N/A   Partly Cloudy
3:53 PM 89.1 °F 100.2 °F 75.9 °F 65% 29.96 in 10.0 mi SE 13.8 mph - N/A   Partly Cloudy
4:53 PM 88.0 °F 95.6 °F 73.0 °F 61% 29.96 in 10.0 mi SE 12.7 mph - N/A   Partly Cloudy
5:53 PM 87.1 °F 96.3 °F 75.0 °F 67% 29.96 in 10.0 mi SE 12.7 mph - N/A   Partly Cloudy
6:53 PM 84.0 °F 91.9 °F 75.0 °F 74% 29.97 in 10.0 mi SSE 8.1 mph - N/A   Partly Cloudy
7:53 PM 84.0 °F 92.6 °F 75.9 °F 76% 29.99 in 10.0 mi SSE 4.6 mph - N/A   Partly Cloudy
8:53 PM 82.9 °F 91.8 °F 77.0 °F 82% 29.99 in 10.0 mi SE 9.2 mph - N/A   Partly Cloudy
9:53 PM 82.9 °F 91.8 °F 77.0 °F 82% 29.99 in 10.0 mi SSE 8.1 mph - N/A   Clear
10:53 PM 82.0 °F 89.4 °F 75.9 °F 82% 30.01 in 10.0 mi SSE 4.6 mph - N/A   Partly Cloudy
11:53 PM 82.0 °F 89.4 °F 75.9 °F 82% 30.01 in 10.0 mi South 3.5 mph - N/A   Partly Cloudy